KC5TIL-3 Weather Reports


Display with metric or nautical units.
time (UTC)temp
F
wind
direction
speed
MPH
gust
MPH
rain 1hr
in
rain 24hr
in
rain mn
in
humidity
%
barometer
mb
20260503040333 68 189 5.0 7.0 0.00 0.00 0.00 20 1017.8
20260503035835 68 229 5.0 8.0 0.00 0.00 0.00 20 1017.8
20260503035333 68 208 5.0 7.0 0.00 0.00 0.00 20 1017.8
20260503034835 68 214 4.0 7.0 0.00 0.00 0.00 20 1017.8
20260503033826 68 219 3.0 6.0 0.00 0.00 0.00 20 1017.8
20260503033328 68 207 4.0 5.0 0.00 0.00 0.00 20 1017.8
20260503032831 68 202 4.0 6.0 0.00 0.00 0.00 20 1017.8
20260503032329 68 212 3.0 6.0 0.00 0.00 0.00 20 1017.8
20260503031830 68 213 4.0 5.0 0.00 0.00 0.00 20 1016.8
20260503031333 68 201 3.0 5.0 0.00 0.00 0.00 20 1016.8
20260503030832 68 196 3.0 6.0 0.00 0.00 0.00 20 1016.8
20260503030333 69 216 4.0 6.0 0.00 0.00 0.00 20 1016.8
20260503025830 69 208 4.0 5.0 0.00 0.00 0.00 17 1016.8
20260503025328 69 196 0.0 6.0 0.00 0.00 0.00 17 1016.8
20260503024830 69 216 4.0 5.0 0.00 0.00 0.00 17 1016.8
20260503023830 70 215 4.0 6.0 0.00 0.00 0.00 17 1016.8
20260503023328 70 211 4.0 6.0 0.00 0.00 0.00 17 1016.8
20260503022830 70 207 3.0 5.0 0.00 0.00 0.00 17 1016.8
20260503022328 70 211 3.0 6.0 0.00 0.00 0.00 17 1016.8
20260503020826 71 208 4.0 6.0 0.00 0.00 0.00 16 1016.8
20260503015830 71 214 4.0 4.0 0.00 0.00 0.00 16 1016.8
20260503015324 71 213 3.0 5.0 0.00 0.00 0.00 16 1016.8
20260503014826 72 215 3.0 5.0 0.00 0.00 0.00 16 1016.8
20260503014328 72 217 4.0 4.0 0.00 0.00 0.00 16 1016.8
20260503013826 72 176 0.0 4.0 0.00 0.00 0.00 16 1016.8
20260503012831 73 166 0.0 5.0 0.00 0.00 0.00 16 1016.8
20260503012329 73 206 3.0 6.0 0.00 0.00 0.00 16 1016.8
20260503011332 73 218 5.0 5.0 0.00 0.00 0.00 16 1016.8
20260503010831 73 215 4.0 7.0 0.00 0.00 0.00 16 1016.8
20260503010333 73 199 4.0 7.0 0.00 0.00 0.00 16 1016.8
20260503005333 74 184 4.0 7.0 0.00 0.00 0.00 16 1016.8
20260503004333 75 298 3.0 5.0 0.00 0.00 0.00 15 1016.8
20260503003831 75 292 3.0 3.0 0.00 0.00 0.00 15 1016.8
20260503003334 75 280 0.0 5.0 0.00 0.00 0.00 15 1016.8
20260503002334 75 336 0.0 6.0 0.00 0.00 0.00 15 1016.8
20260503001337 75 199 3.0 5.0 0.00 0.00 0.00 15 1016.8
20260503000836 75 284 4.0 7.0 0.00 0.00 0.00 15 1016.8
20260503000338 75 291 4.0 7.0 0.00 0.00 0.00 15 1016.8
20260502235835 76 179 3.0 7.0 0.00 0.00 0.00 15 1016.8
20260502235329 76 295 4.0 6.0 0.00 0.00 0.00 15 1016.8
20260502234333 76 232 5.0 5.0 0.00 0.00 0.00 15 1016.8
20260502233832 76 101 0.0 4.0 0.00 0.00 0.00 15 1016.8
20260502232835 76 97 3.0 7.0 0.00 0.00 0.00 15 1016.8
20260502232335 75 147 5.0 5.0 0.00 0.00 0.00 15 1016.8
20260502231333 76 78 3.0 4.0 0.00 0.00 0.00 15 1016.8
20260502230831 75 17 3.0 4.0 0.00 0.00 0.00 15 1016.8
20260502225835 75 288 0.0 6.0 0.00 0.00 0.00 15 1016.8
20260502225334 74 288 0.0 6.0 0.00 0.00 0.00 15 1016.8
20260502224333 74 182 0.0 4.0 0.00 0.00 0.00 15 1016.8
20260502223832 74 176 0.0 4.0 0.00 0.00 0.00 15 1016.8
20260502222334 74 243 3.0 4.0 0.00 0.00 0.00 15 1016.8
20260502221338 74 291 3.0 6.0 0.00 0.00 0.00 13 1016.8
20260502220831 73 19 5.0 7.0 0.00 0.00 0.00 16 1016.8
20260502215835 73 18 7.0 9.0 0.00 0.00 0.00 16 1016.8
20260502215334 74 343 4.0 7.0 0.00 0.00 0.00 15 1016.8
20260502214337 75 87 0.0 5.0 0.00 0.00 0.00 15 1016.8
20260502213836 75 356 7.0 8.0 0.00 0.00 0.00 15 1016.8
20260502213339 74 327 3.0 5.0 0.00 0.00 0.00 15 1016.8
20260502212840 75 345 4.0 6.0 0.00 0.00 0.00 15 1016.8
20260502212339 74 16 0.0 6.0 0.00 0.00 0.00 15 1016.8
20260502211841 73 31 5.0 11.0 0.00 0.00 0.00 16 1017.8
20260502211342 74 322 3.0 7.0 0.00 0.00 0.00 16 1017.8
20260502205845 74 296 5.0 9.0 0.00 0.00 0.00 15 1017.8
20260502205343 74 289 4.0 6.0 0.00 0.00 0.00 15 1017.8
20260502204846 74 301 4.0 10.0 0.00 0.00 0.00 16 1017.8
20260502203846 74 94 0.0 6.0 0.00 0.00 0.00 16 1017.8
20260502203342 73 29 8.0 10.0 0.00 0.00 0.00 16 1017.8
20260502202840 75 27 4.0 7.0 0.00 0.00 0.00 15 1017.8
20260502202338 74 338 7.0 9.0 0.00 0.00 0.00 16 1017.8
20260502201840 75 329 0.0 4.0 0.00 0.00 0.00 15 1017.8
20260502201337 74 3 3.0 7.0 0.00 0.00 0.00 16 1017.8
20260502200837 74 299 4.0 7.0 0.00 0.00 0.00 16 1017.8
20260502200333 73 46 5.0 10.0 0.00 0.00 0.00 16 1017.8
20260502195835 72 1 5.0 5.0 0.00 0.00 0.00 16 1017.8
20260502194337 72 13 6.0 9.0 0.00 0.00 0.00 14 1018.8
20260502193339 74 39 4.0 8.0 0.00 0.00 0.00 16 1018.8
20260502192840 74 287 0.0 6.0 0.00 0.00 0.00 16 1018.8
20260502192338 73 356 3.0 9.0 0.00 0.00 0.00 13 1018.8
20260502191342 74 346 4.0 7.0 0.00 0.00 0.00 16 1018.8
20260502190342 72 2 5.0 8.0 0.00 0.00 0.00 14 1018.8
20260502185844 72 314 6.0 10.0 0.00 0.00 0.00 14 1018.8
20260502185338 72 63 4.0 8.0 0.00 0.00 0.00 16 1018.8
20260502184835 72 332 5.0 11.0 0.00 0.00 0.00 16 1018.8
20260502184337 72 122 7.0 11.0 0.00 0.00 0.00 16 1018.8
20260502183835 72 269 4.0 8.0 0.00 0.00 0.00 14 1018.8
20260502182835 72 290 5.0 7.0 0.00 0.00 0.00 13 1018.8
20260502181835 72 298 4.0 7.0 0.00 0.00 0.00 14 1019.8
20260502181333 72 116 4.0 6.0 0.00 0.00 0.00 14 1019.8
20260502164322 69 129 4.0 9.0 0.00 0.00 0.00 17 1019.8
20260502162801 69 295 4.0 7.0 0.00 0.00 0.00 17 1019.8
20260502161303 68 306 3.0 6.0 0.00 0.00 0.00 20 1019.8
20260502160802 67 333 4.0 8.0 0.00 0.00 0.00 20 1019.8
20260502151302 65 319 3.0 6.0 0.00 0.00 0.00 28 1019.8
20260502150756 65 291 3.0 6.0 0.00 0.00 0.00 33 1019.8
20260502130253 55 293 4.0 5.0 0.00 0.00 0.00 53 1018.8
20260502122754 54 292 3.0 5.0 0.00 0.00 0.00 59 1018.8
20260502122248 54 299 3.0 5.0 0.00 0.00 0.00 60 1018.8
20260502121745 54 283 0.0 4.0 0.00 0.00 0.00 61 1018.8
20260502121247 53 286 0.0 0.0 0.00 0.00 0.00 61 1018.8
20260502120248 53 286 0.0 0.0 0.00 0.00 0.00 61 1017.8
20260502115749 53 286 0.0 0.0 0.00 0.00 0.00 61 1017.8
20260502115248 53 286 0.0 0.0 0.00 0.00 0.00 61 1017.8
20260502114750 53 286 0.0 0.0 0.00 0.00 0.00 60 1017.8
20260502114252 53 286 0.0 4.0 0.00 0.00 0.00 60 1017.8
20260502113750 53 286 3.0 0.0 0.00 0.00 0.00 60 1017.8
20260502113252 52 286 0.0 0.0 0.00 0.00 0.00 60 1017.8
20260502112754 52 286 0.0 0.0 0.00 0.00 0.00 60 1017.8
20260502112253 52 286 0.0 0.0 0.00 0.00 0.00 59 1017.8
20260502111754 52 286 0.0 3.0 0.00 0.00 0.00 59 1017.8
20260502111256 52 286 0.0 0.0 0.00 0.00 0.00 59 1017.8
20260502110755 53 286 0.0 0.0 0.00 0.00 0.00 59 1017.8
20260502105800 52 286 0.0 4.0 0.00 0.00 0.00 58 1016.8
20260502105257 52 286 0.0 0.0 0.00 0.00 0.00 58 1016.8
20260502104759 52 286 0.0 4.0 0.00 0.00 0.00 57 1016.8
20260502104301 52 286 0.0 4.0 0.00 0.00 0.00 57 1016.8
20260502103800 52 286 0.0 4.0 0.00 0.00 0.00 55 1016.8
20260502103302 52 287 0.0 3.0 0.00 0.00 0.00 54 1016.8
20260502102803 53 287 0.0 0.0 0.00 0.00 0.00 52 1016.8
20260502102305 53 287 0.0 0.0 0.00 0.00 0.00 50 1016.8
20260502101804 53 287 0.0 5.0 0.00 0.00 0.00 49 1016.8
20260502100804 53 293 4.0 7.0 0.00 0.00 0.00 50 1016.8
20260502100306 54 287 5.0 6.0 0.00 0.00 0.00 50 1016.8
20260502091301 53 282 0.0 4.0 0.00 0.00 0.00 56 1016.8
20260502090800 53 283 0.0 5.0 0.00 0.00 0.00 56 1016.8
20260502090302 53 291 3.0 4.0 0.00 0.00 0.00 57 1016.8
20260502071257 56 275 3.0 4.0 0.00 0.00 0.00 50 1016.8
20260502070756 56 276 0.0 5.0 0.00 0.00 0.00 50 1016.8
20260502065758 56 275 0.0 0.0 0.00 0.00 0.00 49 1016.8
20260502065258 56 275 0.0 0.0 0.00 0.00 0.00 48 1016.8
20260502064301 56 275 0.0 0.0 0.00 0.00 0.00 48 1016.8
20260502063800 57 275 0.0 0.0 0.00 0.00 0.00 49 1016.8
20260502063301 57 275 0.0 0.0 0.00 0.00 0.00 49 1016.8
20260502062803 57 275 0.0 0.0 0.00 0.00 0.00 49 1016.8
20260502062306 57 275 0.0 0.0 0.00 0.00 0.00 48 1016.8
20260502061803 57 275 0.0 0.0 0.00 0.00 0.00 48 1016.8
20260502061305 57 275 0.0 0.0 0.00 0.00 0.00 48 1016.8
20260502060306 57 275 0.0 3.0 0.00 0.00 0.00 47 1016.8
20260502055808 57 275 0.0 0.0 0.00 0.00 0.00 47 1016.8
20260502055307 57 274 0.0 0.0 0.00 0.00 0.00 46 1016.8
20260502054808 57 274 0.0 0.0 0.00 0.00 0.00 46 1016.8
20260502054310 57 274 0.0 4.0 0.00 0.00 0.00 45 1016.8
20260502053809 58 274 0.0 5.0 0.00 0.00 0.00 45 1016.8
20260502053310 58 272 3.0 4.0 0.00 0.00 0.00 43 1017.8
20260502052808 58 269 0.0 5.0 0.00 0.00 0.00 42 1017.8
20260502052307 58 269 4.0 5.0 0.00 0.00 0.00 41 1017.8
20260502051808 58 268 4.0 5.0 0.00 0.00 0.00 40 1016.8
20260502051310 58 263 4.0 0.0 0.00 0.00 0.00 39 1016.8
20260502050810 58 117 0.0 0.0 0.00 0.00 0.00 39 1016.8
20260502050311 58 117 0.0 0.0 0.00 0.00 0.00 38 1016.8
20260502045812 59 117 0.0 0.0 0.00 0.00 0.00 37 1016.8
20260502044813 59 117 0.0 0.0 0.00 0.00 0.00 36 1016.8
20260502044315 59 117 0.0 0.0 0.00 0.00 0.00 36 1016.8
20260502043814 59 117 0.0 0.0 0.00 0.00 0.00 35 1016.8
20260502043315 59 117 0.0 0.0 0.00 0.00 0.00 36 1016.8
20260502042818 59 117 0.0 0.0 0.00 0.00 0.00 36 1016.8
20260502042316 60 117 0.0 0.0 0.00 0.00 0.00 36 1016.8
20260502041817 59 117 0.0 0.0 0.00 0.00 0.00 35 1016.8
20260502041319 60 117 0.0 0.0 0.00 0.00 0.00 35 1016.8